Hourly Data Report for July 28, 2006

TORONTO CITY
ONTARIO

43°40'00.000" N
79°24'00.000" W
112.50 m
6158355
71508
XTO

Download Data

Hourly Data (July 2006)
Hourly Data Report for July 28, 2006
TIME
LST
Temp Definition
°C
Dew Point Definition
°C
Rel Hum Definition
%
Precip. Amount Definition
mm

Wind Dir Definition
10's deg

Wind Spd Definition
km/h
Visibility Definition
km
Stn Press Definition
kPa
Hmdx Definition


Wind Chill Definition


Weather Definition


00:00 24.2 21.7 86   LegendMM LegendMM   99.62 33   LegendNANA
01:00 24.3 20.8 81   LegendMM LegendMM   99.60 33   LegendNANA
02:00 23.9 20.9 83   LegendMM LegendMM   99.62 32   LegendNANA
03:00 23.5 21.3 87   LegendMM LegendMM   99.61 32   LegendNANA
04:00 22.6 20.8 90   LegendMM LegendMM   99.59 31   LegendNANA
05:00 22.2 20.8 92   LegendMM LegendMM   99.58 30   LegendNANA
06:00 20.7 20.0 96   LegendMM LegendMM   99.69 28   LegendNANA
07:00 20.4 20.1 98   LegendMM LegendMM   99.72 28   LegendNANA
08:00 20.8 20.6 99   LegendMM LegendMM   99.74 29   LegendNANA
09:00 21.7 21.4 98   LegendMM LegendMM   99.73 30   LegendNANA
10:00 23.1 22.4 96   LegendMM LegendMM   99.74 33   LegendNANA
11:00 25.1 21.5 80   LegendMM LegendMM   99.75 34   LegendNANA
12:00 26.7 23.2 81   LegendMM LegendMM   99.74 37   LegendNANA
13:00 28.0 23.0 74   LegendMM LegendMM   99.76 38   LegendNANA
14:00 25.8 22.4 82   LegendMM LegendMM   99.75 35   LegendNANA
15:00 24.3 23.1 93   LegendMM LegendMM   99.75 35   LegendNANA
16:00 24.5 23.9 96   LegendMM LegendMM   99.73 36   LegendNANA
17:00 25.7 23.4 87   LegendMM LegendMM   99.71 36   LegendNANA
18:00 26.6 22.9 80   LegendMM LegendMM   99.70 37   LegendNANA
19:00 25.8 22.8 84   LegendMM LegendMM   99.74 36   LegendNANA
20:00 25.9 22.2 80   LegendMM LegendMM   99.76 35   LegendNANA
21:00 26.2 21.7 76   LegendMM LegendMM   99.84 35   LegendNANA
22:00 24.8 21.3 81   LegendMM LegendMM   99.85 33   LegendNANA
23:00 24.2 21.5 85   LegendMM LegendMM   99.87 33   LegendNANA

Notes on Data Quality.

Legend

  • E = Estimated
  • M = Missing
  • NA = Not Available*
  • [empty] = Indicates an unobserved value
Date modified: